Lid_Strength_Index
-2 -1 -1 -1 -1 -1 -1 -1 -1 -2 -2 -2 -2 -2 -1 1 1 5 7 4 1 -1 -1 3 5 6 7 9 8 8 11 14 14 13 13 12 11 8 7 7 6 6 6 4 2
-2 -1 -1 -1 -1 -1 -1 -2 -2 -2 -2 -2 -2 -2 -1 1 5 7 1 -1 -1 -1 5 7 7 6 10 10 10 10 13 14 13 14 14 12 12 11 10 8 8 7 4 3 2
-1 -1 -1 -1 -1 -1 -2 -2 -2 -2 -2 -1 -1 -0 1 3 8 9 1 -2 -1 1 4 7 7 6 9 10 10 11 13 12 12 12 12 12 12 11 12 12 8 8 6 4 4
-1 -1 -1 -1 -1 -1 -2 -2 -2 -1 -1 -0 0 0 2 6 14 7 1 -1 -1 5 6 7 8 10 11 11 10 13 11 11 11 11 12 13 12 13 12 11 7 6 4 5 5
-0 -1 -1 -1 -1 -1 -2 -2 -2 -1 -1 -1 -0 0 5 9 10 6 2 2 5 6 7 8 9 10 12 11 11 13 12 11 12 11 12 12 13 13 13 10 7 6 5 6 6
-0 -0 -1 -1 -1 -1 -1 -2 -1 -1 -1 -1 -1 -0 7 11 7 7 7 6 6 6 8 8 9 9 11 11 12 12 12 12 12 12 11 13 13 13 13 12 8 6 7 7 7
-0 0 0 -1 -1 -1 -1 -1 -1 -0 -0 -0 -1 5 9 11 8 8 6 6 6 6 7 7 8 9 10 13 11 12 13 12 12 11 12 13 14 14 12 8 8 7 7 7 8
0 0 0 0 -0 -0 -1 -1 -1 -0 0 0 0 6 11 8 8 8 7 6 6 6 7 7 7 9 11 11 11 12 12 15 12 12 12 13 16 12 12 10 10 9 8 8 8
1 1 1 1 0 0 1 0 1 1 -0 1 7 9 12 6 9 8 8 8 8 6 8 6 8 10 11 12 13 14 18 15 14 12 14 14 16 13 13 12 13 12 10 9 9
1 1 1 1 1 1 1 1 2 3 5 6 8 10 10 11 9 8 8 8 8 8 9 9 11 15 16 14 19 18 18 16 17 15 15 16 16 14 14 13 13 13 12 10 10
1 1 1 1 1 0 3 5 10 11 10 12 11 11 10 8 7 9 8 8 7 10 13 12 16 19 17 16 16 16 18 18 16 15 16 18 17 15 14 14 15 14 13 12 10
2 2 1 1 1 0 5 8 9 9 13 9 9 10 9 9 11 10 8 10 12 15 12 15 19 16 15 15 16 16 18 19 17 15 17 17 16 15 15 16 16 16 15 14 11
2 2 2 1 2 5 7 8 5 7 12 11 10 11 10 9 12 12 10 11 13 15 16 17 17 14 15 16 17 18 19 20 19 17 16 18 18 15 15 15 15 15 15 14 12
3 3 3 2 6 7 9 6 5 7 16 13 11 11 9 10 12 10 10 11 13 17 16 17 15 16 16 17 17 19 17 18 18 20 22 18 21 18 16 16 16 15 16 15 15
4 4 3 3 8 9 8 7 6 8 22 13 12 9 9 12 12 11 10 11 15 17 14 18 17 17 17 18 17 18 17 18 19 21 21 20 23 18 16 17 17 16 16 17 15
4 5 4 7 8 8 7 6 8 16 22 17 12 13 14 13 13 12 12 12 13 15 15 17 15 17 18 17 17 16 18 18 19 21 24 24 23 19 17 17 17 17 17 17 17
5 5 7 7 11 8 7 9 16 21 16 18 17 14 16 17 15 14 15 17 19 20 19 17 18 17 16 18 17 18 19 24 22 23 21 28 23 19 16 18 17 17 18 18 17
5 6 7 8 9 8 9 14 21 22 20 15 16 15 17 17 17 15 16 19 18 18 21 22 20 19 17 19 20 19 20 23 26 24 22 27 23 18 17 17 17 17 17 17 18
6 8 10 10 9 9 13 21 22 18 16 17 16 19 19 17 18 17 19 19 19 19 20 22 19 18 18 18 19 19 22 20 26 32 27 22 19 16 18 18 18 18 18 18 19
9 9 11 10 10 12 17 21 20 16 15 16 19 19 22 20 19 18 19 18 18 18 18 20 22 20 18 18 19 19 19 22 23 26 26 23 23 19 20 21 20 18 18 19 20
8 12 8 10 11 15 20 24 20 15 15 17 19 21 19 20 20 20 20 18 17 18 18 19 21 19 20 22 21 22 22 22 21 21 26 27 22 18 19 19 20 21 18 24 24
9 15 9 10 16 21 23 20 15 16 15 16 17 18 19 19 19 21 20 19 16 17 20 19 19 23 20 19 19 20 19 20 23 24 24 24 23 19 21 21 22 20 20 22 25
12 12 9 11 18 22 19 18 17 17 18 18 18 17 17 21 20 19 19 17 16 18 19 18 22 23 18 19 20 22 20 20 23 22 26 26 21 22 24 24 22 23 23 23 24
11 15 14 14 16 18 19 19 19 16 17 17 18 17 19 21 19 21 19 17 17 17 14 16 20 22 20 19 21 22 21 20 23 28 24 23 19 16 19 21 21 22 24 25 25
13 17 16 18 17 17 17 18 19 19 17 17 18 18 19 21 20 23 19 18 18 15 18 19 25 22 21 20 22 20 20 22 23 23 23 18 21 16 16 17 19 24 26 24 24
12 14 16 19 17 17 17 18 19 18 17 18 19 18 17 20 18 19 18 18 18 18 19 19 25 26 25 20 20 22 20 21 21 21 23 21 21 17 17 27 26 24 23 24 25
14 14 12 15 17 17 17 17 17 16 17 16 17 17 18 17 17 17 17 18 18 19 19 22 26 28 26 24 23 21 19 21 23 24 23 24 17 23 23 23 21 19 21 22 24